Weather History for Bakersfield, CA

Change the Weather History Date:

Friday, May 3, 2013

  Actual Average Record
Temperature  
Mean Temperature 76 °F 67 °F  
Max Temperature 94 °F 80 °F 102 °F (1966)
Min Temperature 57 °F 55 °F 40 °F (1938)
Degree Days  
Heating Degree Days 0    
Month to date heating degree days 0  
Since 1 July heating degree days 1823  
Cooling Degree Days 11    
Month to date cooling degree days 34  
Year to date cooling degree days 164  
Growing Degree Days 25 (Base 50)    
Moisture  
Dew Point 26 °F    
Average Humidity 17    
Maximum Humidity 23    
Minimum Humidity 10    
Precipitation  
Precipitation 0.00 in 0.01 in 0.92 in (1930)
Month to date precipitation 0.00 0.03  
Year to date precipitation 2.31 4.16  
Since 1 July precipitation 3.10 6.24  
Snow  
Snow 0.00 in - - ()
Month to date snowfall 0.0  
Since 1 July snowfall 0.0  
Snow Depth 0.00 in    
Sea Level Pressure  
Sea Level Pressure 29.89 in    
Wind  
Wind Speed 6 mph (North)    
Max Wind Speed 15 mph    
Max Gust Speed 25 mph    
Visibility 10 miles    
Events      
T = Trace of Precipitation, MM = Missing Value Source: NWS Daily Summary

Daily Weather History Graph

Daily Weather History Graph

Search for Another Location

Airport:

Trip Planner

Search our weather history database for the weather conditions in past years. The results will help you decide how hot, cold, wet, or windy it might be!

Date:

Astronomy

May. 03, 2013 Rise Set
Actual Time 6:02 AM PDT 7:44 PM PDT
Civil Twilight 5:34 AM PDT 8:11 PM PDT
Nautical Twilight 5:01 AM PDT 8:45 PM PDT
Astronomical Twilight 4:26 AM PDT 9:20 PM PDT
Moon 2:16 AM PDT (5/3) 1:56 PM PDT (5/3)
Length of Visible Light 14h 37m
Length of Day
13h 42m
Waning Crescent, 36% of the Moon is Illuminated
May 3
Waning Crescent
May 9
New
May 17
First Quarter
May 24
Full
May 31
Last Quarter

Hourly Weather History & Observations

Time (PDT) Temp. Dew Point Humidity Pressure Visibility Wind Dir Wind Speed Gust Speed Precip Events Conditions
12:54 AM 64.9 °F 14.0 °F 14% 30.04 in 10.0 mi East 4.6 mph - N/A   Clear
1:54 AM 68.0 °F 15.1 °F 13% 30.03 in 10.0 mi East 4.6 mph - N/A   Clear
2:54 AM 62.1 °F 16.0 °F 17% 30.03 in 10.0 mi Calm Calm - N/A   Clear
3:54 AM 59.0 °F 18.0 °F 20% 30.01 in 10.0 mi NNE 4.6 mph - N/A   Clear
4:54 AM 60.1 °F 21.0 °F 22% 30.01 in 10.0 mi Calm Calm - N/A   Clear
5:50 AM 60.8 °F 23.0 °F 23% - 10.0 mi Calm Calm - N/A   Clear
5:54 AM 60.1 °F 21.9 °F 23% - 10.0 mi Calm Calm - N/A   Clear
6:54 AM 62.1 °F 21.9 °F 21% - 10.0 mi Calm Calm - N/A   Clear
7:54 AM 69.1 °F 19.9 °F 15% 30.01 in 10.0 mi SE 5.8 mph - N/A   Clear
8:54 AM 75.0 °F 24.1 °F 15% 30.00 in 10.0 mi SSE 9.2 mph - N/A   Clear
9:54 AM 78.1 °F 27.0 °F 15% 29.98 in 10.0 mi SE 6.9 mph - N/A   Clear
10:54 AM 82.0 °F 27.0 °F 13% 29.96 in 10.0 mi Variable 5.8 mph - N/A   Clear
11:54 AM 84.9 °F 23.0 °F 10% 29.94 in 10.0 mi SW 6.9 mph - N/A   Clear
12:54 PM 87.1 °F 27.0 °F 11% 29.90 in 10.0 mi West 5.8 mph - N/A   Clear
1:54 PM 90.0 °F 34.0 °F 14% 29.87 in 10.0 mi WNW 9.2 mph - N/A   Clear
2:54 PM 93.0 °F 30.0 °F 11% 29.83 in 10.0 mi NNW 10.4 mph 17.3 mph N/A   Clear
3:54 PM 93.9 °F 33.1 °F 12% 29.80 in 10.0 mi NW 12.7 mph 19.6 mph N/A   Clear
4:54 PM 93.0 °F 30.0 °F 11% 29.78 in 10.0 mi NW 11.5 mph - N/A   Clear
5:54 PM 91.9 °F 26.1 °F 9% 29.77 in 10.0 mi NW 11.5 mph - N/A   Clear
6:54 PM 90.0 °F 27.0 °F 10% 29.75 in 10.0 mi North 6.9 mph - N/A   Clear
7:54 PM 82.9 °F 32.0 °F 16% 29.75 in 10.0 mi NNW 4.6 mph - N/A   Clear
8:54 PM 79.0 °F 30.9 °F 17% 29.76 in 10.0 mi North 5.8 mph - N/A   Clear
9:54 PM 78.1 °F 33.1 °F 19% 29.77 in 10.0 mi North 5.8 mph - N/A   Clear
10:54 PM 75.0 °F 34.0 °F 22% 29.76 in 10.0 mi Variable 4.6 mph - N/A   Clear
11:54 PM 75.0 °F 35.1 °F 23% 29.76 in 10.0 mi ESE 3.5 mph - N/A   Clear